Flag for U.S.A. Weather past 2 weeks in Tulsa, Oklahoma, U.S.A.

Now
66 °F

Passing clouds.


Feels Like: 66 °F
Forecast: 56 / 79 °F
Wind: 6 mph from Southeast

Location: Tulsa International Airport

Current Time: Sep 23, 2014 at 10:18:32 PM

Latest Report: Sep 23, 2014 at 9:53 PM


Visibility: 10 mi

Pressure: 30.13 "Hg

Humidity: 59%

Dew point: 51 °F

Location of TulsaLocation

Historic Weather in Tulsa — Graph

°F

Tulsa temperature yesterday

Maximum temperature yesterday: 78 °F (at 2:53 PM)
Minimum temperature yesterday: 52 °F (at 6:53 AM)
Average temperature yesterday: 66 °F

Past Weeks' High & Low Weather Summary

 TemperatureHumidityPressure
High96 °F (Sep 9, 3:53 PM)100% (Sep 12, 5:53 AM)30.37 "Hg (Sep 12, 5:53 AM)
Low51 °F (Sep 14, 6:53 AM)31% (Sep 21, 3:53 PM)29.61 "Hg (Sep 10, 6:53 AM)
Average72 °F72%30.04 "Hg
* Reported Sep 8 8:53 PM — Sep 23 8:53 PM, Tulsa, Weather by CustomWeather, © 2014

Note: Actual official high and low records may vary slightly from our data, if they occured in-between our weather recording intervals... More about our weather records

Advertising

Tulsa weather history for previous 24 hours

 ConditionsComfort  
Time TempWeatherWind HumidityBarometerVisibility
8:53 PM
Sep 23
67 °FPassing clouds.8 mph55%30.11 "Hg10 mi
7:53 PM70 °FPassing clouds.9 mph46%30.09 "Hg10 mi
6:53 PM73 °FPassing clouds.13 mph43%30.09 "Hg10 mi
5:53 PM76 °FPassing clouds.15 mph37%30.10 "Hg10 mi
4:53 PM79 °FPassing clouds.14 mph34%30.10 "Hg10 mi
3:53 PM78 °FPassing clouds.8 mph40%30.12 "Hg10 mi
2:53 PM78 °FPassing clouds.15 mph40%30.14 "Hg10 mi
1:53 PM77 °FPassing clouds.9 mph44%30.17 "Hg10 mi
12:53 PM75 °FScattered clouds.14 mph47%30.20 "Hg10 mi
11:53 AM73 °FScattered clouds.15 mph53%30.22 "Hg10 mi
10:53 AM71 °FBroken clouds.13 mph57%30.23 "Hg10 mi
9:53 AM68 °FBroken clouds.10 mph63%30.24 "Hg10 mi
8:53 AM64 °FBroken clouds.8 mph75%30.22 "Hg10 mi
7:53 AM61 °FPartly cloudy.7 mph81%30.21 "Hg10 mi
6:53 AM58 °FPassing clouds.6 mph84%30.19 "Hg10 mi
5:53 AM58 °FPassing clouds.7 mph87%30.19 "Hg10 mi
4:53 AM54 °FPassing clouds.7 mph97%30.19 "Hg10 mi
3:53 AM57 °FPassing clouds.5 mph90%30.18 "Hg10 mi
2:53 AM58 °FPassing clouds.6 mph87%30.19 "Hg10 mi
1:53 AM59 °FPassing clouds.No wind84%30.18 "Hg10 mi
12:53 AM62 °FPassing clouds.No wind75%30.18 "Hg10 mi
11:53 PM
Sep 22
61 °FPassing clouds.5 mph78%30.18 "Hg10 mi
10:53 PM62 °FPassing clouds.5 mph75%30.19 "Hg10 mi
Weather by CustomWeather, © 2014

See weather overviewHow to use our weather pages